Time,TemperatureF,DewpointF,PressureIn,WindDirection,WindDirectionDegrees,WindSpeedMPH,WindSpeedGustMPH,Humidity,HourlyPrecipIn,Conditions,Clouds,dailyrainin,SoftwareType,DateUTC
2013-09-26 00:01:00,61.0,58.0,29.17,NNE,22,0.0,0.0,90,0.00,CLR,OVC,0.00,WeatherDisplay:10.37,2013-09-26 04:01:00,
2013-09-26 00:02:00,61.0,58.0,29.17,NNE,22,0.0,0.0,90,0.00,CLR,OVC,0.00,WeatherDisplay:10.37,2013-09-26 04:02:00,
2013-09-26 00:07:00,61.0,58.0,29.17,NNE,22,0.0,0.0,90,0.00,CLR,OVC,0.00,WeatherDisplay:10.37,2013-09-26 04:07:00,
2013-09-26 00:12:00,61.0,58.4,29.18,NNE,22,0.0,0.0,91,0.00,CLR,OVC,0.00,WeatherDisplay:10.37,2013-09-26 04:12:00,
2013-09-26 00:17:00,61.0,58.7,29.18,NNE,22,0.0,0.0,92,0.00,CLR,OVC,0.00,WeatherDisplay:10.37,2013-09-26 04:17:00,
2013-09-26 00:22:00,61.0,58.7,29.18,NNE,22,0.0,0.0,92,0.00,CLR,OVC,0.00,WeatherDisplay:10.37,2013-09-26 04:22:00,
2013-09-26 00:27:00,61.0,59.0,29.18,NNE,22,0.0,0.0,93,0.00,CLR,OVC,0.00,WeatherDisplay:10.37,2013-09-26 04:27:00,
2013-09-26 00:32:00,61.0,58.7,29.18,NNE,22,0.0,0.0,92,0.00,CLR,OVC,0.00,WeatherDisplay:10.37,2013-09-26 04:32:00,
2013-09-26 00:37:00,61.0,56.5,29.18,NNE,22,0.0,0.0,85,0.00,CLR,OVC,0.00,WeatherDisplay:10.37,2013-09-26 04:37:00,
2013-09-26 00:42:00,61.0,57.7,29.18,NNE,22,0.0,0.0,89,0.00,CLR,OVC,0.00,WeatherDisplay:10.37,2013-09-26 04:42:00,
2013-09-26 00:47:00,61.0,58.0,29.18,NNE,22,0.0,0.0,90,0.00,CLR,OVC,0.00,WeatherDisplay:10.37,2013-09-26 04:47:00,
2013-09-26 00:52:00,61.0,58.0,29.18,NNE,22,0.0,0.0,90,0.00,CLR,OVC,0.00,WeatherDisplay:10.37,2013-09-26 04:52:00,
2013-09-26 00:57:00,61.0,58.0,29.18,NNE,22,0.0,0.0,90,0.00,CLR,OVC,0.00,WeatherDisplay:10.37,2013-09-26 04:57:00,
2013-09-26 01:02:00,61.0,57.7,29.18,NNE,22,0.0,0.0,89,0.00,CLR,OVC,0.00,WeatherDisplay:10.37,2013-09-26 05:02:00,
2013-09-26 01:07:00,61.0,57.7,29.18,NNE,22,0.0,0.0,89,0.00,CLR,OVC,0.00,WeatherDisplay:10.37,2013-09-26 05:07:00,
2013-09-26 01:12:00,61.0,58.0,29.17,NNE,22,0.0,0.0,90,0.00,CLR,OVC,0.00,WeatherDisplay:10.37,2013-09-26 05:12:00,
2013-09-26 01:17:00,60.0,56.1,29.17,NNE,22,0.0,0.0,87,0.00,CLR,OVC,0.00,WeatherDisplay:10.37,2013-09-26 05:17:00,
2013-09-26 01:22:00,61.0,56.5,29.17,NNE,22,0.0,0.0,85,0.00,CLR,OVC,0.00,WeatherDisplay:10.37,2013-09-26 05:22:00,
2013-09-26 01:27:00,61.0,55.8,29.17,NNE,22,0.0,0.0,83,0.00,CLR,OVC,0.00,WeatherDisplay:10.37,2013-09-26 05:27:00,
2013-09-26 01:32:00,60.0,55.5,29.17,NNE,22,0.0,0.0,85,0.00,CLR,OVC,0.00,WeatherDisplay:10.37,2013-09-26 05:32:00,
2013-09-26 01:37:00,60.0,55.2,29.17,NNE,22,0.0,0.0,84,0.00,CLR,OVC,0.00,WeatherDisplay:10.37,2013-09-26 05:37:00,
2013-09-26 01:42:00,60.0,55.5,29.16,NNE,22,0.0,0.0,85,0.00,CLR,OVC,0.00,WeatherDisplay:10.37,2013-09-26 05:42:00,
2013-09-26 01:47:00,60.0,55.5,29.16,NNE,22,0.0,0.0,85,0.00,CLR,OVC,0.00,WeatherDisplay:10.37,2013-09-26 05:47:00,
2013-09-26 01:52:00,60.0,56.1,29.17,NNE,22,0.0,0.0,87,0.00,CLR,OVC,0.00,WeatherDisplay:10.37,2013-09-26 05:52:00,
2013-09-26 01:57:00,60.0,55.2,29.17,NNE,22,0.0,0.0,84,0.00,CLR,OVC,0.00,WeatherDisplay:10.37,2013-09-26 05:57:00,
2013-09-26 02:02:00,60.0,53.5,29.16,NNE,22,0.0,0.0,79,0.00,CLR,OVC,0.00,WeatherDisplay:10.37,2013-09-26 06:02:00,
2013-09-26 02:07:00,59.0,52.8,29.16,NNE,22,0.0,0.0,80,0.00,CLR,OVC,0.00,WeatherDisplay:10.37,2013-09-26 06:07:00,
2013-09-26 02:12:00,59.0,52.1,29.16,NNE,22,0.0,0.0,78,0.00,CLR,OVC,0.00,WeatherDisplay:10.37,2013-09-26 06:12:00,
2013-09-26 02:17:00,59.0,50.0,29.16,NNE,22,0.0,0.0,72,0.00,CLR,OVC,0.00,WeatherDisplay:10.37,2013-09-26 06:17:00,
2013-09-26 02:22:00,59.0,50.4,29.17,NNE,22,0.0,0.0,73,0.00,CLR,OVC,0.00,WeatherDisplay:10.37,2013-09-26 06:22:00,
2013-09-26 02:27:00,59.0,50.4,29.17,NNE,22,0.0,0.0,73,0.00,CLR,OVC,0.00,WeatherDisplay:10.37,2013-09-26 06:27:00,
2013-09-26 02:32:00,59.0,50.4,29.17,NNE,22,0.0,0.0,73,0.00,CLR,OVC,0.00,WeatherDisplay:10.37,2013-09-26 06:32:00,
2013-09-26 02:37:00,59.0,51.4,29.17,NNE,22,0.0,0.0,76,0.00,CLR,OVC,0.00,WeatherDisplay:10.37,2013-09-26 06:37:00,
2013-09-26 02:42:00,59.0,51.4,29.17,NNE,22,0.0,0.0,76,0.00,CLR,OVC,0.00,WeatherDisplay:10.37,2013-09-26 06:42:00,
2013-09-26 02:47:00,58.0,50.5,29.17,NNE,22,0.0,0.0,76,0.00,CLR,OVC,0.00,WeatherDisplay:10.37,2013-09-26 06:47:00,
2013-09-26 02:52:00,58.0,50.5,29.16,NNE,22,0.0,0.0,76,0.00,CLR,OVC,0.00,WeatherDisplay:10.37,2013-09-26 06:52:00,
2013-09-26 02:57:00,58.0,50.5,29.16,NNE,22,0.0,0.0,76,0.00,CLR,OVC,0.00,WeatherDisplay:10.37,2013-09-26 06:57:00,
2013-09-26 03:02:00,58.0,50.5,29.16,NNE,22,0.0,0.0,76,0.00,CLR,OVC,0.00,WeatherDisplay:10.37,2013-09-26 07:02:00,
2013-09-26 03:07:00,58.0,51.2,29.16,NNE,22,0.0,0.0,78,0.00,CLR,OVC,0.00,WeatherDisplay:10.37,2013-09-26 07:07:00,
2013-09-26 03:12:00,58.0,50.5,29.17,NNE,22,0.0,0.0,76,0.00,CLR,OVC,0.00,WeatherDisplay:10.37,2013-09-26 07:12:00,
2013-09-26 03:17:00,59.0,54.2,29.16,NNE,22,0.0,0.0,84,0.00,CLR,OVC,0.00,WeatherDisplay:10.37,2013-09-26 07:17:00,
2013-09-26 03:22:00,58.0,50.5,29.16,NNE,22,0.0,0.0,76,0.00,CLR,OVC,0.00,WeatherDisplay:10.37,2013-09-26 07:22:00,
2013-09-26 03:27:00,58.0,53.2,29.17,NNE,22,0.0,0.0,84,0.00,CLR,OVC,0.00,WeatherDisplay:10.37,2013-09-26 07:27:00,
2013-09-26 03:32:00,58.0,50.5,29.17,NNE,22,0.0,0.0,76,0.00,CLR,OVC,0.00,WeatherDisplay:10.37,2013-09-26 07:32:00,
2013-09-26 03:38:00,58.0,51.5,29.16,NNE,22,0.0,0.0,79,0.00,CLR,OVC,0.00,WeatherDisplay:10.37,2013-09-26 07:38:00,
2013-09-26 03:43:00,58.0,48.6,29.16,NNE,22,0.0,0.0,71,0.00,CLR,OVC,0.00,WeatherDisplay:10.37,2013-09-26 07:43:00,
2013-09-26 03:48:00,58.0,51.2,29.16,NNE,22,0.0,0.0,78,0.00,CLR,OVC,0.00,WeatherDisplay:10.37,2013-09-26 07:48:00,
2013-09-26 03:53:00,58.0,49.8,29.16,NNE,22,0.0,0.0,74,0.00,CLR,OVC,0.00,WeatherDisplay:10.37,2013-09-26 07:53:00,
2013-09-26 03:58:00,58.0,52.9,29.17,NNE,22,0.0,0.0,83,0.00,CLR,OVC,0.00,WeatherDisplay:10.37,2013-09-26 07:58:00,
2013-09-26 04:03:00,58.0,51.9,29.17,NNE,22,0.0,0.0,80,0.00,CLR,OVC,0.00,WeatherDisplay:10.37,2013-09-26 08:03:00,
2013-09-26 04:08:00,58.0,53.5,29.17,NNE,22,0.0,0.0,85,0.00,CLR,OVC,0.00,WeatherDisplay:10.37,2013-09-26 08:08:00,
2013-09-26 04:13:00,58.0,51.9,29.17,NNE,22,0.0,0.0,80,0.00,CLR,OVC,0.00,WeatherDisplay:10.37,2013-09-26 08:13:00,
2013-09-26 04:18:00,58.0,53.8,29.17,NNE,22,0.0,0.0,86,0.00,CLR,OVC,0.00,WeatherDisplay:10.37,2013-09-26 08:18:00,
2013-09-26 04:23:00,58.0,52.9,29.17,NNE,22,0.0,0.0,83,0.00,CLR,OVC,0.00,WeatherDisplay:10.37,2013-09-26 08:23:00,
2013-09-26 04:28:00,58.0,54.5,29.17,NNE,22,0.0,0.0,88,0.00,CLR,OVC,0.00,WeatherDisplay:10.37,2013-09-26 08:28:00,
2013-09-26 04:33:00,58.0,53.2,29.17,NNE,22,0.0,0.0,84,0.00,CLR,OVC,0.00,WeatherDisplay:10.37,2013-09-26 08:33:00,
2013-09-26 04:38:00,58.0,55.1,29.17,NNE,22,0.0,0.0,90,0.00,CLR,OVC,0.00,WeatherDisplay:10.37,2013-09-26 08:38:00,
2013-09-26 04:43:00,58.0,54.5,29.17,NNE,22,0.0,0.0,88,0.00,CLR,OVC,0.00,WeatherDisplay:10.37,2013-09-26 08:43:00,
2013-09-26 04:48:00,58.0,55.7,29.17,NNE,22,0.0,0.0,92,0.00,CLR,OVC,0.00,WeatherDisplay:10.37,2013-09-26 08:48:00,
2013-09-26 04:53:00,58.0,54.5,29.17,NNE,22,0.0,0.0,88,0.00,CLR,OVC,0.00,WeatherDisplay:10.37,2013-09-26 08:53:00,
2013-09-26 04:58:00,58.0,55.4,29.17,NNE,22,0.0,0.0,91,0.00,CLR,OVC,0.00,WeatherDisplay:10.37,2013-09-26 08:58:00,
2013-09-26 05:03:00,58.0,54.5,29.17,NNE,22,0.0,0.0,88,0.00,CLR,OVC,0.00,WeatherDisplay:10.37,2013-09-26 09:03:00,
2013-09-26 05:08:00,58.0,56.0,29.17,NNE,22,0.0,0.0,93,0.00,CLR,OVC,0.00,WeatherDisplay:10.37,2013-09-26 09:08:00,
2013-09-26 05:13:00,58.0,55.4,29.17,NNE,22,0.0,0.0,91,0.00,CLR,OVC,0.00,WeatherDisplay:10.37,2013-09-26 09:13:00,
2013-09-26 05:18:00,58.0,56.3,29.17,NNE,22,0.0,0.0,94,0.00,CLR,OVC,0.00,WeatherDisplay:10.37,2013-09-26 09:18:00,
2013-09-26 05:23:00,57.0,53.8,29.17,NNE,22,0.0,0.0,89,0.00,CLR,OVC,0.00,WeatherDisplay:10.37,2013-09-26 09:23:00,
2013-09-26 05:28:00,58.0,56.0,29.17,NNE,22,0.0,0.0,93,0.00,CLR,OVC,0.00,WeatherDisplay:10.37,2013-09-26 09:28:00,
2013-09-26 05:33:00,57.0,53.8,29.17,NNE,22,0.0,0.0,89,0.00,CLR,OVC,0.00,WeatherDisplay:10.37,2013-09-26 09:33:00,
2013-09-26 05:38:00,57.0,55.0,29.17,NNE,22,0.0,0.0,93,0.00,CLR,OVC,0.00,WeatherDisplay:10.37,2013-09-26 09:38:00,
2013-09-26 05:43:00,57.0,53.2,29.17,NNE,22,0.0,0.0,87,0.00,CLR,OVC,0.00,WeatherDisplay:10.37,2013-09-26 09:43:00,
2013-09-26 05:48:00,57.0,54.1,29.17,NNE,22,0.0,0.0,90,0.00,CLR,OVC,0.00,WeatherDisplay:10.37,2013-09-26 09:48:00,
2013-09-26 05:53:00,57.0,51.2,29.17,NNE,22,0.0,0.0,81,0.00,CLR,OVC,0.00,WeatherDisplay:10.37,2013-09-26 09:53:00,
2013-09-26 05:58:00,57.0,52.9,29.17,NNE,22,0.0,0.0,86,0.00,CLR,OVC,0.00,WeatherDisplay:10.37,2013-09-26 09:58:00,
2013-09-26 06:03:00,57.0,52.9,29.17,NNE,22,0.0,0.0,86,0.00,CLR,OVC,0.00,WeatherDisplay:10.37,2013-09-26 10:03:00,
2013-09-26 06:08:00,57.0,53.8,29.17,NNE,22,0.0,0.0,89,0.00,CLR,OVC,0.00,WeatherDisplay:10.37,2013-09-26 10:08:00,
2013-09-26 06:13:00,56.0,51.2,29.17,NNE,22,0.0,0.0,84,0.00,CLR,OVC,0.00,WeatherDisplay:10.37,2013-09-26 10:13:00,
2013-09-26 06:18:00,56.0,50.9,29.18,NNE,22,0.0,0.0,83,0.00,CLR,OVC,0.00,WeatherDisplay:10.37,2013-09-26 10:18:00,
2013-09-26 06:23:00,56.0,47.5,29.18,NNE,22,0.0,0.0,73,0.00,CLR,OVC,0.00,WeatherDisplay:10.37,2013-09-26 10:23:00,
2013-09-26 06:29:00,56.0,49.6,29.18,NNE,22,0.0,0.0,79,0.00,CLR,OVC,0.00,WeatherDisplay:10.37,2013-09-26 10:29:00,
2013-09-26 06:34:00,56.0,48.2,29.18,NNE,22,0.0,0.0,75,0.00,CLR,OVC,0.00,WeatherDisplay:10.37,2013-09-26 10:34:00,
2013-09-26 06:39:00,56.0,49.6,29.18,NNE,22,0.0,0.0,79,0.00,CLR,OVC,0.00,WeatherDisplay:10.37,2013-09-26 10:39:00,
2013-09-26 06:44:00,56.0,49.6,29.18,NNE,22,0.0,0.0,79,0.00,CLR,OVC,0.00,WeatherDisplay:10.37,2013-09-26 10:44:00,
2013-09-26 06:49:00,56.0,48.5,29.18,NNE,22,0.0,0.0,76,0.00,CLR,OVC,0.00,WeatherDisplay:10.37,2013-09-26 10:49:00,
2013-09-26 06:54:00,56.0,48.2,29.18,NNE,22,0.0,0.0,75,0.00,CLR,OVC,0.00,WeatherDisplay:10.37,2013-09-26 10:54:00,
2013-09-26 06:59:00,56.0,46.7,29.19,NNE,22,0.0,0.0,71,0.00,CLR,OVC,0.00,WeatherDisplay:10.37,2013-09-26 10:59:00,
2013-09-26 07:04:00,56.0,46.7,29.19,NNE,22,0.0,0.0,71,0.00,CLR,OVC,0.00,WeatherDisplay:10.37,2013-09-26 11:04:00,
2013-09-26 07:09:00,56.0,45.6,29.19,NNE,22,0.0,0.0,68,0.00,CLR,OVC,0.00,WeatherDisplay:10.37,2013-09-26 11:09:00,
2013-09-26 07:14:00,56.0,44.8,29.19,NNE,22,0.0,0.0,66,0.00,CLR,OVC,0.00,WeatherDisplay:10.37,2013-09-26 11:14:00,
2013-09-26 07:19:00,56.0,42.7,29.19,NNE,22,0.0,0.0,61,0.00,CLR,OVC,0.00,WeatherDisplay:10.37,2013-09-26 11:19:00,
2013-09-26 07:24:00,57.0,41.0,29.19,NNE,22,0.0,0.0,55,0.00,CLR,OVC,0.00,WeatherDisplay:10.37,2013-09-26 11:24:00,
2013-09-26 07:29:00,57.0,42.4,29.19,NNE,22,0.0,0.0,58,0.00,CLR,OVC,0.00,WeatherDisplay:10.37,2013-09-26 11:29:00,
2013-09-26 07:34:00,57.0,42.4,29.19,NNE,22,0.0,0.0,58,0.00,CLR,OVC,0.00,WeatherDisplay:10.37,2013-09-26 11:34:00,
2013-09-26 07:39:00,57.0,42.8,29.19,NNE,22,0.0,0.0,59,0.00,CLR,OVC,0.00,WeatherDisplay:10.37,2013-09-26 11:39:00,
2013-09-26 07:44:00,57.0,40.5,29.19,NNE,22,0.0,0.0,54,0.00,CLR,OVC,0.00,WeatherDisplay:10.37,2013-09-26 11:44:00,
2013-09-26 07:49:00,57.0,42.4,29.20,NNE,22,0.0,0.0,58,0.00,CLR,OVC,0.00,WeatherDisplay:10.37,2013-09-26 11:49:00,
2013-09-26 07:54:00,57.0,42.4,29.20,NNE,22,0.0,0.0,58,0.00,CLR,OVC,0.00,WeatherDisplay:10.37,2013-09-26 11:54:00,
2013-09-26 07:59:00,57.0,43.7,29.20,NNE,22,0.0,0.0,61,0.00,CLR,OVC,0.00,WeatherDisplay:10.37,2013-09-26 11:59:00,
2013-09-26 08:04:00,58.0,44.6,29.20,NNE,22,0.0,0.0,61,0.00,CLR,OVC,0.00,WeatherDisplay:10.37,2013-09-26 12:04:00,
2013-09-26 08:09:00,58.0,45.9,29.20,NNE,22,0.0,0.0,64,0.00,CLR,OVC,0.00,WeatherDisplay:10.37,2013-09-26 12:09:00,
2013-09-26 08:14:00,58.0,47.5,29.20,NNE,22,0.0,0.0,68,0.00,CLR,OVC,0.00,WeatherDisplay:10.37,2013-09-26 12:14:00,
2013-09-26 08:19:00,58.0,49.0,29.20,NNE,22,0.0,0.0,72,0.00,CLR,OVC,0.00,WeatherDisplay:10.37,2013-09-26 12:19:00,
2013-09-26 08:24:00,58.0,48.6,29.20,NNE,22,0.0,0.0,71,0.00,CLR,OVC,0.00,WeatherDisplay:10.37,2013-09-26 12:24:00,
2013-09-26 08:29:00,59.0,52.1,29.21,NNE,22,0.0,0.0,78,0.00,CLR,OVC,0.00,WeatherDisplay:10.37,2013-09-26 12:29:00,
2013-09-26 08:34:00,59.0,53.2,29.21,NNE,22,0.0,0.0,81,0.00,CLR,OVC,0.00,WeatherDisplay:10.37,2013-09-26 12:34:00,
2013-09-26 08:39:00,59.0,54.2,29.21,NNE,22,0.0,0.0,84,0.00,CLR,OVC,0.00,WeatherDisplay:10.37,2013-09-26 12:39:00,
2013-09-26 08:44:00,60.0,55.5,29.21,NNE,22,0.0,0.0,85,0.00,CLR,OVC,0.00,WeatherDisplay:10.37,2013-09-26 12:44:00,
2013-09-26 08:49:00,60.0,56.1,29.21,NNE,22,0.0,0.0,87,0.00,CLR,OVC,0.00,WeatherDisplay:10.37,2013-09-26 12:49:00,
2013-09-26 08:54:00,60.0,56.1,29.21,NNE,22,0.0,0.0,87,0.00,CLR,OVC,0.00,WeatherDisplay:10.37,2013-09-26 12:54:00,
2013-09-26 08:59:00,61.0,59.9,29.22,NNE,22,0.0,0.0,96,0.00,CLR,OVC,0.00,WeatherDisplay:10.37,2013-09-26 12:59:00,
2013-09-26 09:04:00,61.0,60.1,29.22,NNE,22,0.0,0.0,97,0.00,CLR,OVC,0.00,WeatherDisplay:10.37,2013-09-26 13:04:00,
2013-09-26 09:09:00,62.0,62.0,29.22,ENE,67,0.0,0.0,100,0.00,CLR,OVC,0.00,WeatherDisplay:10.37,2013-09-26 13:09:00,
2013-09-26 09:14:00,63.0,63.0,29.22,East,90,0.0,0.0,100,0.00,CLR,OVC,0.00,WeatherDisplay:10.37,2013-09-26 13:14:00,
2013-09-26 09:19:00,63.0,63.0,29.22,East,90,0.0,0.0,100,0.00,CLR,OVC,0.00,WeatherDisplay:10.37,2013-09-26 13:19:00,
2013-09-26 09:25:00,64.0,64.0,29.22,NW,315,1.2,1.2,100,0.00,CLR,OVC,0.00,WeatherDisplay:10.37,2013-09-26 13:25:00,
2013-09-26 09:30:00,64.0,64.0,29.23,NW,315,0.0,0.0,100,0.00,CLR,OVC,0.00,WeatherDisplay:10.37,2013-09-26 13:30:00,
2013-09-26 09:35:00,64.0,64.0,29.23,NNW,337,0.0,0.0,100,0.00,CLR,OVC,0.00,WeatherDisplay:10.37,2013-09-26 13:35:00,
2013-09-26 09:40:00,65.0,65.0,29.23,NE,45,0.0,0.0,100,0.00,CLR,OVC,0.00,WeatherDisplay:10.37,2013-09-26 13:40:00,
2013-09-26 09:45:00,65.0,63.8,29.23,NE,45,0.0,0.0,96,0.00,CLR,OVC,0.00,WeatherDisplay:10.37,2013-09-26 13:45:00,
2013-09-26 09:50:00,66.0,64.5,29.23,NE,45,0.0,0.0,95,0.00,CLR,OVC,0.00,WeatherDisplay:10.37,2013-09-26 13:50:00,
2013-09-26 09:55:00,66.0,63.3,29.23,NE,45,0.0,0.0,91,0.00,CLR,OVC,0.00,WeatherDisplay:10.37,2013-09-26 13:55:00,
2013-09-26 10:00:00,66.0,63.0,29.23,NE,45,0.0,0.0,90,0.00,CLR,OVC,0.00,WeatherDisplay:10.37,2013-09-26 14:00:00,
2013-09-26 10:05:00,66.0,62.7,29.23,NE,45,0.0,0.0,89,0.00,CLR,OVC,0.00,WeatherDisplay:10.37,2013-09-26 14:05:00,
2013-09-26 10:10:00,66.0,62.3,29.23,NE,45,0.0,0.0,88,0.00,CLR,OVC,0.00,WeatherDisplay:10.37,2013-09-26 14:10:00,
2013-09-26 10:15:00,66.0,62.0,29.23,NE,45,0.0,0.0,87,0.00,CLR,OVC,0.00,WeatherDisplay:10.37,2013-09-26 14:15:00,
2013-09-26 10:20:00,67.0,63.0,29.23,NE,45,0.0,0.0,87,0.00,CLR,OVC,0.00,WeatherDisplay:10.37,2013-09-26 14:20:00,
2013-09-26 10:25:00,67.0,63.0,29.23,NE,45,0.0,0.0,87,0.00,CLR,OVC,0.00,WeatherDisplay:10.37,2013-09-26 14:25:00,
2013-09-26 10:30:00,67.0,62.7,29.23,NE,45,0.0,0.0,86,0.00,CLR,OVC,0.00,WeatherDisplay:10.37,2013-09-26 14:30:00,
2013-09-26 10:35:00,67.0,62.3,29.23,NE,45,0.0,0.0,85,0.00,CLR,OVC,0.00,WeatherDisplay:10.37,2013-09-26 14:35:00,
2013-09-26 10:40:00,68.0,62.6,29.23,NE,45,0.0,0.0,83,0.00,CLR,OVC,0.00,WeatherDisplay:10.37,2013-09-26 14:40:00,
2013-09-26 10:45:00,68.0,60.5,29.23,NE,45,0.0,0.0,77,0.00,CLR,OVC,0.00,WeatherDisplay:10.37,2013-09-26 14:45:00,
2013-09-26 10:50:00,68.0,59.8,29.24,NNE,22,0.0,0.0,75,0.00,CLR,OVC,0.00,WeatherDisplay:10.37,2013-09-26 14:50:00,
2013-09-26 10:55:00,68.0,59.0,29.24,ENE,67,0.0,0.0,73,0.00,CLR,OVC,0.00,WeatherDisplay:10.37,2013-09-26 14:55:00,
2013-09-26 11:00:00,69.0,59.6,29.23,SE,135,2.0,2.0,72,0.00,CLR,OVC,0.00,WeatherDisplay:10.37,2013-09-26 15:00:00,
2013-09-26 11:05:00,70.0,59.0,29.23,ENE,67,0.0,0.0,68,0.00,CLR,OVC,0.00,WeatherDisplay:10.37,2013-09-26 15:05:00,
2013-09-26 11:10:00,71.0,59.9,29.23,ESE,112,0.0,0.0,68,0.00,CLR,OVC,0.00,WeatherDisplay:10.37,2013-09-26 15:10:00,
2013-09-26 11:15:00,71.0,58.6,29.23,NNE,22,0.0,0.0,65,0.00,CLR,OVC,0.00,WeatherDisplay:10.37,2013-09-26 15:15:00,
2013-09-26 11:20:00,72.0,58.7,29.23,ESE,112,0.0,0.0,63,0.00,CLR,OVC,0.00,WeatherDisplay:10.37,2013-09-26 15:20:00,
2013-09-26 11:25:00,73.0,58.8,29.23,ESE,112,0.0,0.0,61,0.00,CLR,OVC,0.00,WeatherDisplay:10.37,2013-09-26 15:25:00,
2013-09-26 11:30:00,73.0,58.3,29.23,SE,135,3.5,3.5,60,0.00,CLR,OVC,0.00,WeatherDisplay:10.37,2013-09-26 15:30:00,
2013-09-26 11:35:00,73.0,57.3,29.23,ESE,112,2.3,2.3,58,0.00,CLR,OVC,0.00,WeatherDisplay:10.37,2013-09-26 15:35:00,
2013-09-26 11:40:00,73.0,57.8,29.23,ESE,112,1.2,0.0,59,0.00,CLR,OVC,0.00,WeatherDisplay:10.37,2013-09-26 15:40:00,
2013-09-26 11:45:00,75.0,57.7,29.23,NNE,22,0.0,0.0,55,0.00,CLR,OVC,0.00,WeatherDisplay:10.37,2013-09-26 15:45:00,
2013-09-26 11:50:00,76.0,57.6,29.23,NE,45,0.0,0.0,53,0.00,CLR,OVC,0.00,WeatherDisplay:10.37,2013-09-26 15:50:00,
2013-09-26 11:55:00,75.0,55.6,29.23,SE,135,0.0,0.0,51,0.00,CLR,OVC,0.00,WeatherDisplay:10.37,2013-09-26 15:55:00,
2013-09-26 12:01:00,75.0,55.1,29.23,East,90,0.0,0.0,50,0.00,CLR,OVC,0.00,WeatherDisplay:10.37,2013-09-26 16:01:00,
2013-09-26 12:06:00,74.0,54.2,29.23,SE,135,1.2,0.0,50,0.00,CLR,OVC,0.00,WeatherDisplay:10.37,2013-09-26 16:06:00,
2013-09-26 12:11:00,74.0,54.2,29.23,SE,135,1.2,0.0,50,0.00,CLR,OVC,0.00,WeatherDisplay:10.37,2013-09-26 16:11:00,
2013-09-26 12:16:00,74.0,54.2,29.23,North,360,1.0,1.0,50,0.00,CLR,OVC,0.00,WeatherDisplay:10.37,2013-09-26 16:16:00,
2013-09-26 12:21:00,75.0,55.1,29.23,SSE,157,0.0,0.0,50,0.00,CLR,OVC,0.00,WeatherDisplay:10.37,2013-09-26 16:21:00,
2013-09-26 12:26:00,75.0,55.1,29.23,SE,135,0.0,0.0,50,0.00,CLR,OVC,0.00,WeatherDisplay:10.37,2013-09-26 16:26:00,
2013-09-26 12:31:00,75.0,55.1,29.23,ESE,112,4.6,4.6,50,0.00,CLR,OVC,0.00,WeatherDisplay:10.37,2013-09-26 16:31:00,
2013-09-26 12:36:00,75.0,55.1,29.23,SSE,157,0.0,0.0,50,0.00,CLR,OVC,0.00,WeatherDisplay:10.37,2013-09-26 16:36:00,
2013-09-26 12:41:00,76.0,56.6,29.23,SE,135,0.0,0.0,51,0.00,CLR,OVC,0.00,WeatherDisplay:10.37,2013-09-26 16:41:00,
2013-09-26 12:46:00,76.0,56.0,29.23,SE,135,0.0,0.0,50,0.00,CLR,OVC,0.00,WeatherDisplay:10.37,2013-09-26 16:46:00,
2013-09-26 12:51:00,76.0,54.9,29.23,South,180,0.0,0.9,48,0.00,CLR,OVC,0.00,WeatherDisplay:10.37,2013-09-26 16:51:00,
2013-09-26 12:56:00,76.0,56.0,29.23,SE,135,0.0,0.0,50,0.00,CLR,OVC,0.00,WeatherDisplay:10.37,2013-09-26 16:56:00,
2013-09-26 13:01:00,76.0,56.0,29.23,NE,45,0.0,0.0,50,0.00,CLR,OVC,0.00,WeatherDisplay:10.37,2013-09-26 17:01:00,
2013-09-26 13:06:00,76.0,54.3,29.23,NE,45,0.0,0.0,47,0.00,CLR,OVC,0.00,WeatherDisplay:10.37,2013-09-26 17:06:00,
2013-09-26 13:11:00,76.0,56.0,29.22,NE,45,0.0,0.0,50,0.00,CLR,OVC,0.00,WeatherDisplay:10.37,2013-09-26 17:11:00,
2013-09-26 13:16:00,75.0,55.6,29.22,NW,315,0.0,0.0,51,0.00,CLR,OVC,0.00,WeatherDisplay:10.37,2013-09-26 17:16:00,
2013-09-26 13:22:00,75.0,55.6,29.22,ESE,112,0.0,0.0,51,0.00,CLR,OVC,0.00,WeatherDisplay:10.37,2013-09-26 17:22:00,
2013-09-26 13:27:00,75.0,55.1,29.22,East,90,0.0,0.0,50,0.00,CLR,OVC,0.00,WeatherDisplay:10.37,2013-09-26 17:27:00,
2013-09-26 13:32:00,76.0,56.0,29.22,NE,45,0.0,0.0,50,0.00,CLR,OVC,0.00,WeatherDisplay:10.37,2013-09-26 17:32:00,
2013-09-26 13:37:00,76.0,54.9,29.22,NE,45,0.0,0.0,48,0.00,CLR,OVC,0.00,WeatherDisplay:10.37,2013-09-26 17:37:00,
2013-09-26 13:42:00,75.0,54.0,29.21,NE,45,0.0,0.0,48,0.00,CLR,OVC,0.00,WeatherDisplay:10.37,2013-09-26 17:42:00,
2013-09-26 13:47:00,76.0,56.0,29.21,NE,45,0.0,0.0,50,0.00,CLR,OVC,0.00,WeatherDisplay:10.37,2013-09-26 17:47:00,
2013-09-26 13:52:00,76.0,56.0,29.21,SE,135,1.2,1.2,50,0.00,CLR,OVC,0.00,WeatherDisplay:10.37,2013-09-26 17:52:00,
2013-09-26 13:57:00,76.0,56.0,29.21,SE,135,1.2,1.2,50,0.00,CLR,OVC,0.00,WeatherDisplay:10.37,2013-09-26 17:57:00,
2013-09-26 14:02:00,75.0,55.6,29.21,East,90,2.3,2.3,51,0.00,CLR,OVC,0.00,WeatherDisplay:10.37,2013-09-26 18:02:00,
2013-09-26 14:07:00,75.0,55.6,29.21,SE,135,3.5,3.5,51,0.00,CLR,OVC,0.00,WeatherDisplay:10.37,2013-09-26 18:07:00,
2013-09-26 14:12:00,75.0,56.2,29.21,SE,135,0.0,0.0,52,0.00,CLR,OVC,0.00,WeatherDisplay:10.37,2013-09-26 18:12:00,
2013-09-26 14:17:00,75.0,56.2,29.21,SE,135,3.0,3.0,52,0.00,CLR,OVC,0.00,WeatherDisplay:10.37,2013-09-26 18:17:00,
2013-09-26 14:22:00,74.0,56.3,29.21,NW,315,0.0,0.0,54,0.00,CLR,OVC,0.00,WeatherDisplay:10.37,2013-09-26 18:22:00,
2013-09-26 14:27:00,75.0,56.7,29.21,NNW,337,2.3,2.3,53,0.00,CLR,OVC,0.00,WeatherDisplay:10.37,2013-09-26 18:27:00,
2013-09-26 14:32:00,75.0,56.2,29.21,ESE,112,0.0,0.0,52,0.00,CLR,OVC,0.00,WeatherDisplay:10.37,2013-09-26 18:32:00,
2013-09-26 14:37:00,74.0,55.8,29.21,East,90,0.0,0.0,53,0.00,CLR,OVC,0.00,WeatherDisplay:10.37,2013-09-26 18:37:00,
2013-09-26 14:42:00,74.0,55.8,29.21,SE,135,2.0,2.0,53,0.00,CLR,OVC,0.00,WeatherDisplay:10.37,2013-09-26 18:42:00,
2013-09-26 14:47:00,73.0,53.8,29.21,SE,135,3.5,3.5,51,0.00,CLR,OVC,0.00,WeatherDisplay:10.37,2013-09-26 18:47:00,
2013-09-26 14:52:00,73.0,54.3,29.21,SE,135,2.3,2.3,52,0.00,CLR,OVC,0.00,WeatherDisplay:10.37,2013-09-26 18:52:00,
2013-09-26 14:57:00,73.0,54.9,29.21,SE,135,0.0,0.0,53,0.00,CLR,OVC,0.00,WeatherDisplay:10.37,2013-09-26 18:57:00,
2013-09-26 15:02:00,74.0,55.3,29.21,SE,135,0.0,0.4,52,0.00,CLR,OVC,0.00,WeatherDisplay:10.37,2013-09-26 19:02:00,
2013-09-26 15:07:00,75.0,56.2,29.21,ESE,112,1.2,0.0,52,0.00,CLR,OVC,0.00,WeatherDisplay:10.37,2013-09-26 19:07:00,
2013-09-26 15:12:00,75.0,55.1,29.21,ENE,67,2.3,2.3,50,0.00,CLR,OVC,0.00,WeatherDisplay:10.37,2013-09-26 19:12:00,
2013-09-26 15:17:00,75.0,55.1,29.21,NE,45,0.0,0.0,50,0.00,CLR,OVC,0.00,WeatherDisplay:10.37,2013-09-26 19:17:00,
2013-09-26 15:23:00,77.0,55.8,29.21,North,360,0.0,0.0,48,0.00,CLR,OVC,0.00,WeatherDisplay:10.37,2013-09-26 19:23:00,
2013-09-26 15:28:00,78.0,55.5,29.21,NE,45,0.0,0.0,46,0.00,CLR,OVC,0.00,WeatherDisplay:10.37,2013-09-26 19:28:00,
2013-09-26 15:33:00,78.0,55.5,29.21,NNW,337,0.0,0.0,46,0.00,CLR,OVC,0.00,WeatherDisplay:10.37,2013-09-26 19:33:00,
2013-09-26 15:38:00,79.0,54.6,29.20,ESE,112,0.0,0.0,43,0.00,CLR,OVC,0.00,WeatherDisplay:10.37,2013-09-26 19:38:00,
2013-09-26 15:43:00,79.0,55.8,29.20,NNW,337,3.5,0.0,45,0.00,CLR,OVC,0.00,WeatherDisplay:10.37,2013-09-26 19:43:00,
2013-09-26 15:48:00,77.0,56.4,29.21,NW,315,3.5,3.5,49,0.00,CLR,OVC,0.00,WeatherDisplay:10.37,2013-09-26 19:48:00,
2013-09-26 15:53:00,76.0,56.6,29.21,NW,315,3.5,3.5,51,0.00,CLR,OVC,0.00,WeatherDisplay:10.37,2013-09-26 19:53:00,
2013-09-26 15:58:00,76.0,56.6,29.21,NW,315,0.0,0.0,51,0.00,CLR,OVC,0.00,WeatherDisplay:10.37,2013-09-26 19:58:00,
2013-09-26 16:04:00,75.0,56.7,29.21,West,270,0.0,0.0,53,0.00,CLR,OVC,0.00,WeatherDisplay:10.37,2013-09-26 20:04:00,
2013-09-26 16:09:00,74.0,55.8,29.21,WNW,292,0.0,0.0,53,0.00,CLR,OVC,0.00,WeatherDisplay:10.37,2013-09-26 20:09:00,
2013-09-26 16:14:00,75.0,57.2,29.21,WNW,292,0.0,0.0,54,0.00,CLR,OVC,0.00,WeatherDisplay:10.37,2013-09-26 20:14:00,
2013-09-26 16:19:00,76.0,57.6,29.21,NW,315,0.0,0.0,53,0.00,CLR,OVC,0.00,WeatherDisplay:10.37,2013-09-26 20:19:00,
2013-09-26 16:24:00,77.0,56.9,29.21,South,180,0.0,0.0,50,0.00,CLR,OVC,0.00,WeatherDisplay:10.37,2013-09-26 20:24:00,
2013-09-26 16:29:00,76.0,56.0,29.20,SSE,157,0.0,0.0,50,0.00,CLR,OVC,0.00,WeatherDisplay:10.37,2013-09-26 20:29:00,
2013-09-26 16:34:00,75.0,56.2,29.20,West,270,0.0,0.0,52,0.00,CLR,OVC,0.00,WeatherDisplay:10.37,2013-09-26 20:34:00,
2013-09-26 16:39:00,75.0,57.7,29.21,NE,45,0.0,0.0,55,0.00,CLR,OVC,0.00,WeatherDisplay:10.37,2013-09-26 20:39:00,
2013-09-26 16:44:00,75.0,57.7,29.21,NW,315,2.3,2.3,55,0.00,CLR,OVC,0.00,WeatherDisplay:10.37,2013-09-26 20:44:00,
2013-09-26 16:49:00,75.0,57.2,29.20,NNW,337,0.0,0.0,54,0.00,CLR,OVC,0.00,WeatherDisplay:10.37,2013-09-26 20:49:00,
2013-09-26 16:54:00,75.0,57.7,29.20,North,360,0.0,0.0,55,0.00,CLR,OVC,0.00,WeatherDisplay:10.37,2013-09-26 20:54:00,
2013-09-26 16:59:00,74.0,57.8,29.20,NW,315,0.0,0.0,57,0.00,CLR,OVC,0.00,WeatherDisplay:10.37,2013-09-26 20:59:00,
2013-09-26 17:04:00,75.0,58.2,29.20,NW,315,0.0,0.0,56,0.00,CLR,OVC,0.00,WeatherDisplay:10.37,2013-09-26 21:04:00,
2013-09-26 17:09:00,75.0,57.7,29.21,NW,315,2.3,0.0,55,0.00,CLR,OVC,0.00,WeatherDisplay:10.37,2013-09-26 21:09:00,
2013-09-26 17:14:00,75.0,58.2,29.21,NW,315,0.0,0.0,56,0.00,CLR,OVC,0.00,WeatherDisplay:10.37,2013-09-26 21:14:00,
2013-09-26 17:20:00,73.0,57.3,29.21,WNW,292,0.0,0.0,58,0.00,CLR,OVC,0.00,WeatherDisplay:10.37,2013-09-26 21:20:00,
2013-09-26 17:25:00,72.0,57.8,29.21,West,270,1.2,0.0,61,0.00,CLR,OVC,0.00,WeatherDisplay:10.37,2013-09-26 21:25:00,
2013-09-26 17:30:00,72.0,57.8,29.21,WNW,292,0.0,0.0,61,0.00,CLR,OVC,0.00,WeatherDisplay:10.37,2013-09-26 21:30:00,
2013-09-26 17:35:00,72.0,57.8,29.21,NW,315,3.5,3.5,61,0.00,CLR,OVC,0.00,WeatherDisplay:10.37,2013-09-26 21:35:00,
2013-09-26 17:40:00,73.0,58.8,29.21,NW,315,0.0,0.0,61,0.00,CLR,OVC,0.00,WeatherDisplay:10.37,2013-09-26 21:40:00,
2013-09-26 17:45:00,73.0,58.8,29.21,WNW,292,0.0,0.0,61,0.00,CLR,OVC,0.00,WeatherDisplay:10.37,2013-09-26 21:45:00,
2013-09-26 17:50:00,74.0,59.2,29.21,NW,315,2.3,2.3,60,0.00,CLR,OVC,0.00,WeatherDisplay:10.37,2013-09-26 21:50:00,
2013-09-26 17:55:00,73.0,58.8,29.21,NW,315,0.0,0.0,61,0.00,CLR,OVC,0.00,WeatherDisplay:10.37,2013-09-26 21:55:00,
2013-09-26 18:00:00,73.0,58.3,29.21,NW,315,2.3,2.3,60,0.00,CLR,OVC,0.00,WeatherDisplay:10.37,2013-09-26 22:00:00,
2013-09-26 18:05:00,73.0,59.7,29.21,NW,315,0.0,0.0,63,0.00,CLR,OVC,0.00,WeatherDisplay:10.37,2013-09-26 22:05:00,
2013-09-26 18:10:00,73.0,60.1,29.22,NW,315,0.0,0.0,64,0.00,CLR,OVC,0.00,WeatherDisplay:10.37,2013-09-26 22:10:00,
2013-09-26 18:15:00,72.0,59.2,29.22,NW,315,0.0,0.0,64,0.00,CLR,OVC,0.00,WeatherDisplay:10.37,2013-09-26 22:15:00,
2013-09-26 18:20:00,72.0,58.7,29.22,NW,315,1.2,1.2,63,0.00,CLR,OVC,0.00,WeatherDisplay:10.37,2013-09-26 22:20:00,
2013-09-26 18:25:00,72.0,58.7,29.22,NW,315,0.0,0.0,63,0.00,CLR,OVC,0.00,WeatherDisplay:10.37,2013-09-26 22:25:00,
2013-09-26 18:30:00,72.0,60.0,29.23,NW,315,0.0,0.0,66,0.00,CLR,OVC,0.00,WeatherDisplay:10.37,2013-09-26 22:30:00,
2013-09-26 18:35:00,71.0,59.1,29.23,NW,315,0.0,0.0,66,0.00,CLR,OVC,0.00,WeatherDisplay:10.37,2013-09-26 22:35:00,
2013-09-26 18:40:00,70.0,59.0,29.23,NW,315,0.0,0.0,68,0.00,CLR,OVC,0.00,WeatherDisplay:10.37,2013-09-26 22:40:00,
2013-09-26 18:45:00,69.0,58.8,29.23,NW,315,0.0,0.0,70,0.00,CLR,OVC,0.00,WeatherDisplay:10.37,2013-09-26 22:45:00,
2013-09-26 18:50:00,68.0,59.0,29.24,NW,315,0.0,0.0,73,0.00,CLR,OVC,0.00,WeatherDisplay:10.37,2013-09-26 22:50:00,
2013-09-26 18:55:00,66.0,57.5,29.24,NW,315,0.0,0.0,74,0.00,CLR,OVC,0.00,WeatherDisplay:10.37,2013-09-26 22:55:00,
2013-09-26 19:01:00,65.0,57.2,29.24,NW,315,0.0,0.0,76,0.00,CLR,OVC,0.00,WeatherDisplay:10.37,2013-09-26 23:01:00,
2013-09-26 19:06:00,65.0,58.0,29.24,NW,315,0.0,0.0,78,0.00,CLR,OVC,0.00,WeatherDisplay:10.37,2013-09-26 23:06:00,
2013-09-26 19:11:00,64.0,57.7,29.25,NW,315,0.0,0.0,80,0.00,CLR,OVC,0.00,WeatherDisplay:10.37,2013-09-26 23:11:00,
2013-09-26 19:16:00,63.0,57.1,29.25,NW,315,0.0,0.0,81,0.00,CLR,OVC,0.00,WeatherDisplay:10.37,2013-09-26 23:16:00,
2013-09-26 19:21:00,63.0,57.4,29.25,NW,315,0.0,0.0,82,0.00,CLR,OVC,0.00,WeatherDisplay:10.37,2013-09-26 23:21:00,
2013-09-26 19:26:00,62.0,57.1,29.25,NW,315,0.0,0.0,84,0.00,CLR,OVC,0.00,WeatherDisplay:10.37,2013-09-26 23:26:00,
2013-09-26 19:31:00,62.0,57.4,29.25,NW,315,0.0,0.0,85,0.00,CLR,OVC,0.00,WeatherDisplay:10.37,2013-09-26 23:31:00,
2013-09-26 19:36:00,61.0,57.1,29.25,NW,315,0.0,0.0,87,0.00,CLR,OVC,0.00,WeatherDisplay:10.37,2013-09-26 23:36:00,
2013-09-26 19:42:00,61.0,57.7,29.25,NW,315,0.0,0.0,89,0.00,CLR,OVC,0.00,WeatherDisplay:10.37,2013-09-26 23:42:00,
2013-09-26 19:47:00,61.0,57.1,29.25,NW,315,0.0,0.0,87,0.00,CLR,OVC,0.00,WeatherDisplay:10.37,2013-09-26 23:47:00,
2013-09-26 19:52:00,60.0,56.7,29.25,NW,315,0.0,0.0,89,0.00,CLR,OVC,0.00,WeatherDisplay:10.37,2013-09-26 23:52:00,
2013-09-26 19:57:00,60.0,58.3,29.25,NW,315,0.0,0.0,94,0.00,CLR,OVC,0.00,WeatherDisplay:10.37,2013-09-26 23:57:00,
2013-09-26 20:02:00,60.0,58.6,29.25,NW,315,0.0,0.0,95,0.00,CLR,OVC,0.00,WeatherDisplay:10.37,2013-09-27 00:02:00,
2013-09-26 20:10:00,59.0,58.7,29.26,NW,315,0.0,0.0,99,0.00,CLR,OVC,0.00,WeatherDisplay:10.37,2013-09-27 00:10:00,
2013-09-26 20:15:00,59.0,58.7,29.26,NW,315,0.0,0.0,99,0.00,CLR,OVC,0.00,WeatherDisplay:10.37,2013-09-27 00:15:00,
2013-09-26 20:20:00,59.0,59.0,29.27,NW,315,0.0,0.0,100,0.00,CLR,OVC,0.00,WeatherDisplay:10.37,2013-09-27 00:20:00,
2013-09-26 20:25:00,59.0,59.0,29.27,NW,315,0.0,0.0,100,0.00,CLR,OVC,0.00,WeatherDisplay:10.37,2013-09-27 00:25:00,
2013-09-26 20:30:00,59.0,59.0,29.27,NW,315,0.0,0.0,100,0.00,CLR,OVC,0.00,WeatherDisplay:10.37,2013-09-27 00:30:00,
2013-09-26 20:35:00,59.0,59.0,29.27,NW,315,0.0,0.0,100,0.00,CLR,OVC,0.00,WeatherDisplay:10.37,2013-09-27 00:35:00,
2013-09-26 20:40:00,59.0,59.0,29.28,NW,315,0.0,0.0,100,0.00,CLR,OVC,0.00,WeatherDisplay:10.37,2013-09-27 00:40:00,
2013-09-26 20:45:00,58.0,58.0,29.28,NW,315,0.0,0.0,100,0.00,CLR,OVC,0.00,WeatherDisplay:10.37,2013-09-27 00:45:00,
2013-09-26 20:50:00,58.0,58.0,29.28,NW,315,0.0,0.0,100,0.00,CLR,OVC,0.00,WeatherDisplay:10.37,2013-09-27 00:50:00,
2013-09-26 20:55:00,58.0,58.0,29.28,NW,315,0.0,0.0,100,0.00,CLR,OVC,0.00,WeatherDisplay:10.37,2013-09-27 00:55:00,
2013-09-26 21:00:00,58.0,58.0,29.29,NW,315,0.0,0.0,100,0.00,CLR,OVC,0.00,WeatherDisplay:10.37,2013-09-27 01:00:00,
2013-09-26 21:05:00,58.0,58.0,29.29,NW,315,0.0,0.0,100,0.00,CLR,OVC,0.00,WeatherDisplay:10.37,2013-09-27 01:05:00,
2013-09-26 21:10:00,58.0,58.0,29.29,NW,315,0.0,0.0,100,0.00,CLR,OVC,0.00,WeatherDisplay:10.37,2013-09-27 01:10:00,
2013-09-26 21:15:00,58.0,58.0,29.29,NW,315,0.0,0.0,100,0.00,CLR,OVC,0.00,WeatherDisplay:10.37,2013-09-27 01:15:00,
2013-09-26 21:20:00,58.0,58.0,29.29,NW,315,0.0,0.0,100,0.00,CLR,OVC,0.00,WeatherDisplay:10.37,2013-09-27 01:20:00,
2013-09-26 21:25:00,57.0,57.0,29.29,NW,315,0.0,0.0,100,0.00,CLR,OVC,0.00,WeatherDisplay:10.37,2013-09-27 01:25:00,
2013-09-26 21:30:00,57.0,57.0,29.29,NW,315,0.0,0.0,100,0.00,CLR,OVC,0.00,WeatherDisplay:10.37,2013-09-27 01:30:00,
2013-09-26 21:35:00,57.0,57.0,29.29,NW,315,0.0,0.0,100,0.00,CLR,OVC,0.00,WeatherDisplay:10.37,2013-09-27 01:35:00,
2013-09-26 21:41:00,57.0,57.0,29.30,NW,315,0.0,0.0,100,0.00,CLR,OVC,0.00,WeatherDisplay:10.37,2013-09-27 01:41:00,
2013-09-26 21:46:00,57.0,57.0,29.30,NW,315,0.0,0.0,100,0.00,CLR,OVC,0.00,WeatherDisplay:10.37,2013-09-27 01:46:00,
2013-09-26 21:51:00,57.0,57.0,29.30,NW,315,0.0,0.0,100,0.00,CLR,OVC,0.00,WeatherDisplay:10.37,2013-09-27 01:51:00,
2013-09-26 21:56:00,57.0,57.0,29.30,NW,315,0.0,0.0,100,0.00,CLR,OVC,0.00,WeatherDisplay:10.37,2013-09-27 01:56:00,
2013-09-26 22:01:00,56.0,56.0,29.30,NW,315,0.0,0.0,100,0.00,CLR,OVC,0.00,WeatherDisplay:10.37,2013-09-27 02:01:00,
2013-09-26 22:06:00,56.0,56.0,29.30,NW,315,0.0,0.0,100,0.00,CLR,OVC,0.00,WeatherDisplay:10.37,2013-09-27 02:06:00,
2013-09-26 22:11:00,56.0,56.0,29.30,NW,315,0.0,0.0,100,0.00,CLR,OVC,0.00,WeatherDisplay:10.37,2013-09-27 02:11:00,
2013-09-26 22:16:00,56.0,56.0,29.30,NW,315,0.0,0.0,100,0.00,CLR,OVC,0.00,WeatherDisplay:10.37,2013-09-27 02:16:00,
2013-09-26 22:21:00,56.0,56.0,29.31,NW,315,0.0,0.0,100,0.00,CLR,OVC,0.00,WeatherDisplay:10.37,2013-09-27 02:21:00,
2013-09-26 22:26:00,57.0,57.0,29.31,NW,315,0.0,0.0,100,0.00,CLR,OVC,0.00,WeatherDisplay:10.37,2013-09-27 02:26:00,
2013-09-26 22:31:00,57.0,57.0,29.31,NW,315,0.0,0.0,100,0.00,CLR,OVC,0.00,WeatherDisplay:10.37,2013-09-27 02:31:00,
2013-09-26 22:36:00,57.0,57.0,29.31,NW,315,0.0,0.0,100,0.00,CLR,OVC,0.00,WeatherDisplay:10.37,2013-09-27 02:36:00,
2013-09-26 22:41:00,57.0,57.0,29.31,NW,315,0.0,0.0,100,0.00,CLR,OVC,0.00,WeatherDisplay:10.37,2013-09-27 02:41:00,
2013-09-26 22:46:00,57.0,57.0,29.31,NW,315,0.0,0.0,100,0.00,CLR,OVC,0.00,WeatherDisplay:10.37,2013-09-27 02:46:00,
2013-09-26 22:51:00,57.0,57.0,29.31,NW,315,0.0,0.0,100,0.00,CLR,OVC,0.00,WeatherDisplay:10.37,2013-09-27 02:51:00,
2013-09-26 22:56:00,57.0,57.0,29.31,NW,315,0.0,0.0,100,0.00,CLR,OVC,0.00,WeatherDisplay:10.37,2013-09-27 02:56:00,
2013-09-26 23:02:00,57.0,57.0,29.31,NW,315,0.0,0.0,100,0.00,CLR,OVC,0.00,WeatherDisplay:10.37,2013-09-27 03:02:00,
2013-09-26 23:07:00,57.0,57.0,29.31,NW,315,0.0,0.0,100,0.00,CLR,OVC,0.00,WeatherDisplay:10.37,2013-09-27 03:07:00,
2013-09-26 23:12:00,57.0,57.0,29.31,NW,315,0.0,0.0,100,0.00,CLR,OVC,0.00,WeatherDisplay:10.37,2013-09-27 03:12:00,
2013-09-26 23:17:00,57.0,57.0,29.31,NW,315,0.0,0.0,100,0.00,CLR,OVC,0.00,WeatherDisplay:10.37,2013-09-27 03:17:00,
2013-09-26 23:22:00,57.0,57.0,29.31,NW,315,0.0,0.0,100,0.00,CLR,OVC,0.00,WeatherDisplay:10.37,2013-09-27 03:22:00,
2013-09-26 23:27:00,57.0,57.0,29.31,NW,315,0.0,0.0,100,0.00,CLR,OVC,0.00,WeatherDisplay:10.37,2013-09-27 03:27:00,
2013-09-26 23:32:00,57.0,57.0,29.31,NW,315,0.0,0.0,100,0.00,CLR,OVC,0.00,WeatherDisplay:10.37,2013-09-27 03:32:00,
2013-09-26 23:37:00,57.0,57.0,29.31,NW,315,0.0,0.0,100,0.00,CLR,OVC,0.00,WeatherDisplay:10.37,2013-09-27 03:37:00,
2013-09-26 23:42:00,57.0,57.0,29.31,NW,315,0.0,0.0,100,0.00,CLR,OVC,0.00,WeatherDisplay:10.37,2013-09-27 03:42:00,
2013-09-26 23:47:00,56.0,56.0,29.31,NW,315,0.0,0.0,100,0.00,CLR,OVC,0.00,WeatherDisplay:10.37,2013-09-27 03:47:00,
2013-09-26 23:52:00,56.0,56.0,29.32,NW,315,0.0,0.0,100,0.00,CLR,OVC,0.00,WeatherDisplay:10.37,2013-09-27 03:52:00,
2013-09-26 23:57:00,56.0,56.0,29.32,NW,315,0.0,0.0,100,0.00,CLR,OVC,0.00,WeatherDisplay:10.37,2013-09-27 03:57:00,